Temp
24 24 24 25 25 25 25 25 25 25 25 25 25 24 24 24 24 24 23 23 23 23 23 23 24 24 23 23 23 23 23 23 23 22 22 22 22 22 22 23 23 23
24 24 24 24 24 25 25 25 25 25 25 25 25 25 25 24 24 24 23 23 23 23 23 23 24 24 23 23 23 23 23 23 23 22 22 22 22 22 22 22 22 22
24 24 24 24 24 24 25 25 25 25 25 25 25 25 25 24 24 24 23 23 23 23 23 23 24 24 23 23 23 23 23 23 23 22 22 22 22 22 22 22 22 22
24 24 24 24 24 24 25 25 25 25 25 25 25 25 25 25 24 24 23 23 23 23 23 23 24 24 23 23 23 23 23 23 23 23 22 22 22 22 22 22 22 22
24 24 24 24 24 24 25 25 25 25 25 25 25 25 25 25 24 24 23 23 23 23 23 24 24 24 24 23 23 23 23 23 23 23 22 22 22 22 22 22 22 22
24 24 24 24 24 24 24 24 25 25 25 25 25 25 25 25 24 24 23 23 23 23 24 24 24 24 24 23 23 23 23 22 22 22 22 22 22 22 22 22 22 22
24 24 24 24 24 24 24 24 24 25 25 25 25 25 25 25 24 24 24 23 23 23 24 24 24 24 23 23 23 23 23 22 22 22 22 22 22 22 22 22 22 22
25 24 24 24 24 24 24 24 24 25 25 25 25 25 25 24 24 24 24 23 23 23 23 24 24 24 23 23 23 23 22 22 22 22 22 22 22 22 22 22 22 22
25 24 24 24 24 24 24 24 24 24 25 25 25 25 24 24 24 24 24 23 23 23 23 24 24 24 23 23 23 23 23 22 22 22 22 22 22 22 22 22 22 22
25 25 24 24 24 24 24 24 24 24 25 25 25 24 24 24 24 24 24 23 23 23 23 23 24 24 23 23 23 23 23 22 22 22 22 22 22 22 22 22 22 22
25 25 24 24 24 24 24 24 24 24 25 25 24 24 24 24 24 24 24 23 23 23 23 23 23 24 23 23 23 23 23 22 22 22 22 22 22 22 22 22 22 22
25 25 25 25 24 24 24 24 24 24 24 24 24 24 24 24 24 24 24 24 24 23 23 23 23 23 23 23 23 23 22 22 22 22 22 22 22 22 22 22 22 22
25 25 25 25 25 25 25 25 25 24 24 24 24 24 24 24 24 24 24 24 24 23 23 23 23 23 23 23 23 23 22 22 22 22 22 22 22 22 22 22 22 22
25 25 25 25 25 25 25 25 25 25 25 24 24 24 24 24 24 24 23 23 23 23 23 23 23 22 23 23 23 23 23 22 22 22 22 22 22 22 22 22 22 22
25 25 25 25 25 25 25 25 25 25 25 24 24 24 24 24 24 23 23 23 23 23 23 22 22 22 22 23 23 23 23 22 23 22 22 22 22 22 22 22 22 22
26 25 25 25 25 25 25 25 25 25 25 24 24 24 24 24 23 23 23 23 23 23 22 22 22 22 22 23 23 23 23 22 22 22 22 22 22 22 22 22 22 22
26 26 25 25 25 25 25 25 25 25 24 24 24 24 24 24 23 23 23 23 23 23 22 22 22 22 22 23 23 23 23 22 22 22 22 22 22 22 22 22 22 21
26 26 25 25 25 25 25 25 25 25 24 24 24 24 24 24 23 23 23 23 23 23 22 22 22 22 22 22 23 23 22 22 22 22 22 21 22 22 22 21 21 21
26 26 26 25 25 25 25 25 25 25 24 24 24 24 24 24 23 23 23 23 23 23 22 22 22 22 22 22 23 22 22 22 22 22 22 22 22 22 22 21 21 21
26 26 26 26 25 25 25 25 25 25 24 24 24 24 24 24 23 23 23 23 23 23 23 22 22 22 22 22 22 22 21 21 22 21 21 21 22 22 21 21 21 21
26 26 26 26 26 25 25 25 25 25 25 25 25 24 24 24 24 24 23 23 23 23 23 22 22 22 22 22 22 22 21 21 21 21 20 21 21 21 21 21 21 21
27 26 26 26 26 25 25 25 25 25 25 25 25 24 24 24 24 24 24 23 23 23 23 22 22 22 22 22 22 21 21 20 20 20 20 20 20 21 21 21 21 21
27 27 26 26 26 26 25 25 25 25 25 25 25 24 24 24 24 24 24 23 23 23 22 22 22 22 22 21 21 21 21 20 20 20 20 20 20 20 20 20 20 20
27 27 27 26 26 26 25 25 25 25 25 25 25 24 24 24 24 24 23 23 23 23 23 22 22 22 22 21 21 21 21 20 20 20 20 20 19 19 19 20 20 20
28 27 27 27 26 26 26 25 25 25 25 25 25 24 24 24 24 24 23 23 23 23 23 22 22 22 21 21 21 21 21 20 20 20 19 19 18 18 19 20 20 20
28 28 27 27 26 26 26 26 26 25 25 25 24 24 24 24 24 23 23 23 23 23 22 22 22 22 21 21 21 21 21 21 20 20 19 18 18 18 19 20 20 20
Height
782 783 783 784 786 788 791 793 795 797 799 800 802 804 805 807 809 811 813 815 817 818 820 822 823 824 825 826 827 828 830 831 831 832 833 834 835 836 837 838 839 840
777 779 781 782 783 786 788 790 792 794 795 797 799 801 803 805 807 808 810 812 814 816 818 819 820 821 823 824 826 827 829 830 831 832 832 833 834 835 837 837 838 839
773 775 777 779 780 782 784 787 789 790 792 794 796 799 800 802 804 806 808 810 812 814 815 817 818 819 821 822 824 826 827 829 830 831 832 832 833 834 835 837 837 838
768 771 774 776 778 780 782 784 786 787 789 791 793 796 797 799 801 803 805 807 809 811 813 814 816 817 819 821 823 824 826 827 829 830 830 831 832 833 834 835 836 836
763 767 770 773 775 777 779 780 782 784 786 788 790 792 794 796 798 800 802 804 806 808 810 812 814 816 818 819 820 822 824 825 827 828 829 829 830 831 832 833 834 835
760 763 767 770 772 774 776 777 779 781 782 785 787 789 791 793 795 797 799 800 802 805 808 810 812 814 815 817 818 820 821 823 824 825 827 827 828 830 831 832 832 833
756 759 763 766 769 771 772 773 776 777 779 782 783 785 787 789 791 793 795 797 799 802 805 807 809 811 813 814 815 817 818 820 821 822 824 825 826 827 828 830 831 831
752 755 759 762 765 767 768 770 773 774 776 779 780 781 783 785 787 789 791 794 797 800 802 804 806 808 810 811 812 814 815 817 818 819 821 822 824 825 826 827 829 829
749 752 755 758 760 762 764 766 769 771 773 774 776 778 780 781 783 785 788 791 794 797 799 801 803 805 806 808 809 811 813 814 816 817 818 820 821 823 824 825 826 827
744 747 751 754 756 758 760 762 765 767 769 770 772 775 776 778 780 782 785 788 791 793 795 797 800 801 804 805 807 809 811 812 814 815 816 818 819 820 822 823 824 825
740 743 746 748 751 753 755 758 761 763 765 767 769 771 773 775 777 780 782 785 786 789 791 794 796 799 801 803 805 807 809 811 812 814 815 816 817 818 819 821 822 822
735 738 740 743 746 749 751 754 757 759 761 763 765 767 770 772 774 777 778 780 783 785 788 791 794 797 799 800 803 805 807 809 810 811 812 813 815 816 817 818 819 820
729 731 733 737 740 743 747 750 753 755 757 760 762 764 767 769 771 773 775 778 781 783 787 789 792 795 797 799 801 803 805 806 807 808 809 810 812 813 815 816 816 817
723 726 728 732 736 739 744 747 749 752 754 757 760 762 764 766 768 771 774 777 780 782 785 787 790 792 794 796 799 801 802 803 804 805 806 807 808 810 812 813 814 814
718 721 724 727 732 736 740 743 746 749 753 756 758 760 763 765 768 770 773 776 779 781 783 785 787 789 791 793 795 797 798 800 801 802 803 804 805 806 808 810 811 812
715 718 720 724 728 731 735 739 743 748 751 754 757 760 762 765 768 770 773 775 777 778 781 783 785 786 788 790 791 793 795 796 798 798 799 800 802 803 804 806 807 808
711 713 717 720 723 727 732 737 742 746 750 754 757 760 762 764 767 769 771 773 774 776 779 780 781 783 785 786 788 789 791 792 794 794 795 797 798 799 800 801 803 805
707 709 713 716 720 725 730 735 741 746 750 753 756 758 761 762 764 766 768 770 772 774 776 777 778 780 781 784 785 785 787 790 791 790 791 793 795 796 797 798 800 801
703 706 709 713 717 722 728 734 740 745 748 752 754 756 758 759 761 763 765 767 768 770 771 773 775 777 778 780 781 782 785 788 787 787 790 792 793 794 795 796 797 799
701 704 707 710 715 721 727 732 737 742 746 750 752 753 754 755 758 759 761 762 764 766 768 770 772 773 774 776 778 781 783 784 785 790 794 795 794 793 794 794 795 796
698 700 704 708 713 719 724 728 733 738 742 745 747 748 750 751 753 755 756 758 760 763 765 767 768 769 771 774 776 779 780 782 786 791 794 794 792 791 791 792 793 794
693 697 701 706 711 715 719 723 728 732 737 740 742 744 745 747 749 750 752 754 757 759 761 763 765 766 768 771 774 776 778 780 784 787 788 788 788 788 788 789 791 793
688 693 698 703 707 710 713 717 721 726 730 733 736 738 740 742 744 746 748 750 753 755 757 759 761 762 765 768 771 774 775 778 781 783 784 784 784 785 787 788 790 792
684 688 693 697 700 702 706 710 715 719 722 725 728 731 734 737 739 742 744 746 748 750 753 756 757 759 762 766 769 772 774 776 779 780 780 781 782 784 786 787 789 792
679 683 687 691 694 696 700 704 708 711 715 719 723 726 729 733 735 738 740 742 745 747 750 753 755 757 761 764 767 770 772 774 777 778 778 780 781 783 785 787 789 790
674 678 682 685 688 691 694 698 702 706 710 714 718 721 725 728 731 734 736 739 742 745 748 752 753 756 759 762 765 768 770 772 775 776 777 779 780 782 784 785 787 789
Wind_Speed
41 41 40 39 38 36 35 35 35 34 34 34 33 33 34 33 31 31 31 30 31 31 30 29 27 27 28 28 27 25 23 22 20 20 19 18 18 17 16 15 13 10
42 42 40 38 37 36 36 36 36 35 36 35 35 35 34 33 32 32 32 32 33 33 31 30 29 28 29 29 28 26 24 22 20 21 21 20 19 17 16 16 13 11
43 42 41 38 37 36 36 37 36 36 37 36 36 36 35 34 33 34 34 34 35 35 33 32 30 29 28 28 28 27 25 23 21 21 20 20 21 19 17 15 13 13
44 43 42 39 37 37 37 37 37 37 37 37 37 37 36 35 35 35 35 36 36 36 35 34 33 31 29 28 28 27 26 24 21 20 18 18 20 20 19 16 14 14
45 43 41 39 37 37 37 37 38 38 38 37 38 37 36 36 36 36 37 37 37 37 36 35 35 33 30 29 28 27 27 26 23 22 20 18 18 19 19 18 16 15
43 43 41 39 38 37 38 38 38 39 39 39 38 38 37 37 37 38 39 39 39 38 37 37 37 34 32 30 29 28 29 27 24 24 23 20 19 19 19 19 18 17
43 43 42 40 39 39 39 38 38 39 40 40 39 39 39 39 39 39 40 41 40 39 38 39 38 36 34 32 31 30 29 28 26 26 25 23 22 21 21 21 21 20
43 43 42 40 39 39 39 39 38 39 40 40 40 40 40 40 41 41 41 42 41 40 40 40 39 38 36 34 34 32 31 30 29 28 27 25 24 22 22 22 22 20
43 42 41 40 40 40 40 40 39 39 40 41 41 41 40 41 42 42 43 42 42 41 41 41 40 39 38 37 36 35 33 31 30 31 29 28 27 25 22 21 21 21
43 42 41 40 40 41 41 41 40 40 41 42 42 41 41 41 41 42 43 43 43 42 42 42 42 40 39 38 36 35 33 31 30 30 30 28 29 28 25 22 22 22
42 42 41 41 41 42 42 42 41 40 41 42 41 41 42 41 40 40 42 43 44 44 43 43 42 41 40 38 37 34 32 32 30 29 28 27 28 29 27 24 24 24
43 42 42 42 43 43 42 42 41 41 42 42 42 42 42 41 41 41 42 44 45 44 44 43 42 42 41 39 37 35 32 32 31 30 29 28 28 29 28 26 26 26
43 44 44 43 44 44 43 42 42 42 42 42 41 41 41 41 42 43 43 43 43 43 43 43 42 42 41 40 38 35 33 33 33 32 31 29 29 29 29 28 27 26
45 45 44 44 43 43 42 42 42 42 41 41 40 40 40 41 42 43 42 41 41 41 41 42 41 41 41 40 38 36 35 35 34 34 33 32 31 31 30 29 28 27
44 43 43 43 42 41 42 42 42 41 40 38 38 39 39 39 40 40 40 39 39 39 39 40 41 41 41 41 39 38 37 37 36 35 35 34 33 32 32 31 30 29
42 42 42 41 41 42 42 42 40 39 38 37 37 38 37 36 36 37 37 38 39 39 38 38 39 40 41 42 41 40 39 38 37 36 35 34 33 32 32 33 32 31
41 41 40 41 42 41 41 40 38 37 36 35 35 35 35 35 35 36 37 38 39 38 37 37 38 39 40 42 42 41 40 39 38 37 35 35 34 33 33 34 33 32
41 40 40 40 40 40 39 37 35 34 33 33 33 34 35 35 35 36 37 37 37 37 38 38 38 38 40 41 42 43 41 39 39 38 36 35 34 34 34 34 33 32
41 39 39 39 39 39 37 34 32 32 32 32 33 34 35 35 35 35 36 37 37 38 39 38 37 38 40 41 43 44 41 40 41 40 35 33 34 34 35 34 33 33
39 38 38 38 37 35 33 32 32 31 31 31 32 34 36 36 35 35 37 38 39 39 39 38 37 39 41 42 43 43 41 42 41 35 29 28 31 33 34 35 34 33
38 38 37 35 34 32 32 32 32 31 31 32 34 35 36 37 37 38 38 38 39 39 38 37 38 39 40 40 41 41 41 41 38 31 25 26 31 33 35 36 35 33
39 38 36 33 32 32 33 33 33 33 34 35 35 35 36 37 38 39 39 38 38 38 38 36 36 37 38 39 39 40 41 39 36 32 27 27 31 34 35 35 34 31
40 38 35 33 33 34 35 35 35 36 37 38 36 35 36 38 39 39 39 39 38 38 38 36 34 35 36 37 38 40 41 39 36 34 29 28 31 34 34 33 31 30
40 39 36 34 35 37 37 37 37 39 40 41 39 38 38 39 40 39 38 38 38 39 39 36 33 33 34 35 37 39 41 40 39 37 33 30 30 30 30 29 29 28
40 40 38 37 38 39 38 39 40 41 41 41 40 39 38 38 38 36 36 37 38 39 37 34 32 31 31 32 35 37 39 40 40 36 32 28 27 26 26 26 26 26
40 40 40 39 39 40 40 41 41 40 39 40 39 39 38 37 37 36 35 36 36 35 34 32 31 29 29 31 32 33 36 39 38 35 30 26 23 23 24 24 24 23
Wind_Direction
212 213 211 210 209 208 207 207 208 211 213 212 210 209 209 209 209 208 208 207 204 203 202 204 207 207 205 206 209 209 205 205 203 198 196 196 195 196 202 203 201 203
213 214 214 212 210 210 209 209 211 212 212 212 211 210 209 209 208 207 207 206 204 204 204 206 207 208 206 206 208 207 204 204 203 201 203 204 199 199 206 207 207 211
212 214 214 213 210 209 210 211 212 212 212 211 210 210 209 208 207 206 206 206 204 204 205 207 207 206 205 205 205 205 203 203 204 204 208 208 204 204 206 207 209 208
211 213 214 213 211 209 210 209 210 211 210 209 209 209 209 208 206 205 205 205 205 205 206 208 208 207 208 206 204 203 204 204 204 203 201 202 203 205 206 207 209 207
210 212 213 213 212 210 210 209 209 209 209 209 208 208 208 207 205 203 203 204 206 206 207 208 209 208 208 207 203 202 203 204 204 201 199 200 201 204 208 212 215 215
209 211 212 213 212 211 211 210 209 209 209 208 207 206 207 206 204 203 203 204 206 207 207 208 207 207 206 205 204 203 202 203 203 202 204 205 206 209 212 217 222 223
208 210 211 211 212 212 212 212 211 210 210 208 207 207 207 205 205 204 204 205 205 205 205 205 205 205 205 205 204 203 204 204 204 204 206 207 209 213 216 221 227 229
208 209 210 210 211 212 213 213 212 211 209 208 208 208 207 206 206 205 205 205 204 204 203 203 205 207 207 206 205 205 207 207 207 207 207 207 209 214 217 221 227 232
207 208 208 208 209 211 213 213 213 212 210 209 209 208 207 207 207 206 205 205 204 204 204 204 207 209 209 208 208 209 210 211 211 210 210 209 211 215 217 219 223 229
206 206 207 207 209 211 213 213 213 212 211 211 210 209 208 207 207 206 205 204 205 205 205 205 207 209 209 209 210 212 213 212 211 211 212 213 215 217 219 221 224 227
205 205 206 207 209 211 213 213 213 212 212 212 210 209 208 207 205 205 205 205 206 206 206 206 207 208 208 209 211 214 214 213 210 209 211 214 216 218 221 225 229 231
203 204 205 207 209 212 213 213 213 212 212 212 210 209 208 207 205 205 206 206 207 207 207 207 207 207 208 209 211 212 213 213 211 211 213 215 217 220 223 228 233 235
203 204 205 207 209 211 213 213 213 213 212 212 211 209 208 207 206 207 207 208 208 207 207 207 206 206 208 210 210 211 212 212 213 214 215 217 221 224 227 232 234 235
204 205 206 207 209 211 213 214 214 213 213 212 210 209 209 208 207 207 208 208 208 208 207 207 206 206 207 209 209 210 211 212 213 215 216 218 222 226 228 232 234 234
205 205 206 207 208 210 212 214 215 214 213 212 210 210 210 209 209 208 207 207 208 209 208 207 207 207 208 208 208 209 211 212 214 216 217 219 222 225 229 232 235 237
205 205 206 207 207 209 212 213 214 214 213 212 211 210 210 209 209 208 208 208 209 210 209 208 208 208 209 210 210 210 211 211 214 217 218 219 221 224 228 232 236 239
205 205 205 206 208 210 211 212 213 213 213 212 211 210 210 209 208 208 209 210 211 211 210 209 210 209 210 210 212 213 212 210 213 216 218 219 221 224 228 231 233 236
206 205 205 207 208 209 211 211 211 212 211 211 210 210 210 209 209 209 210 211 212 212 212 212 211 211 211 211 213 214 212 210 213 216 216 218 221 225 229 230 231 233
206 205 205 206 207 208 209 208 209 210 210 209 209 210 210 209 209 209 210 212 212 213 214 214 213 213 213 213 214 214 211 211 216 217 216 219 222 226 230 231 232 233
207 206 206 206 206 205 204 204 206 207 207 208 209 210 209 208 208 209 211 212 213 215 215 215 215 215 215 215 215 213 210 211 214 214 217 224 228 229 232 233 234 234
206 207 207 205 203 200 199 201 203 203 204 207 209 210 209 208 208 209 211 213 214 215 215 216 217 217 216 215 213 211 209 208 208 209 219 233 236 235 236 236 236 235
206 207 206 203 198 196 196 197 198 199 202 206 209 210 209 209 209 211 212 213 213 214 215 215 217 217 216 214 211 209 206 203 203 207 219 235 239 237 237 237 235 234
204 205 204 199 195 194 194 194 194 197 201 205 206 206 206 208 210 211 212 212 212 213 213 213 215 216 215 213 209 207 203 199 200 208 221 237 240 237 236 235 234 233
204 203 202 197 194 194 193 192 193 197 201 203 204 203 204 207 209 209 211 211 211 213 213 211 212 214 214 211 209 207 204 201 204 212 224 237 239 235 234 234 233 234
203 202 201 197 196 195 193 192 194 198 200 201 202 203 203 205 206 206 207 209 212 213 211 209 210 212 212 210 207 206 207 207 208 214 223 230 232 232 232 232 231 231
202 201 201 199 198 196 193 193 195 197 197 198 199 201 201 202 202 203 204 207 209 210 208 206 208 210 209 208 206 206 210 211 211 215 221 222 221 223 223 221 222 224